{"data":{"norad_id":60115,"epoch":"2026-05-24T16:00:07.676928Z","epoch_age_seconds":97045,"freshness":"FRESH","line1":"1 60115U 24118C   26144.66675552  .00001100  00000+0  13929-4 0  9997","line2":"2 60115  53.1594 206.9224 0000898  93.0792 267.0329 15.69713349109920","mean_motion":15.69713349,"eccentricity":8.98e-5,"inclination_deg":53.1594,"raan_deg":206.9224,"arg_perigee_deg":93.0792,"mean_anomaly_deg":267.0329,"bstar":1.3929e-5,"rev_number":10992,"period_min":91.736494495467,"perigee_km":359.11210757656,"apogee_km":360.32222618494,"semimajor_km":6737.8541668807,"source":"CELESTRAK","updated_at":"2026-05-25T13:38:19.165547Z"}}